Weather History for KCCR - June, 2013

Change the Weather History Date:

Saturday, June 1, 2013

  Actual Average Record
Temperature  
Mean Temperature 77 °F 67 °F  
Max Temperature 97 °F 80 °F 97 °F (2013)
Min Temperature 56 °F 54 °F 48 °F (2011)
Degree Days  
Heating Degree Days 0    
Month to date heating degree days 0  
Since 1 June heating degree days 0  
Since 1 July heating degree days 2404  
Cooling Degree Days 12    
Month to date cooling degree days 12  
Year to date cooling degree days 104  
Since 1 June cooling degree days 12  
Growing Degree Days 26 (Base 50)    
Moisture  
Dew Point 45 °F    
Average Humidity 42    
Maximum Humidity 67    
Minimum Humidity 16    
Precipitation  
Precipitation 0.00 in - 0.13 in (2011)
Month to date precipitation 0.00  
Year to date precipitation 1.94  
Since 1 July precipitation 11.58  
Sea Level Pressure  
Sea Level Pressure 29.80 in    
Wind  
Wind Speed 4 mph (WNW)    
Max Wind Speed 15 mph    
Max Gust Speed 18 mph    
Visibility 10 miles    
Events      
T = Trace of Precipitation, MM = Missing Value Source: NWS Daily Summary

Daily Weather History Graph

Daily Weather History Graph

Search for Another Location

Airport or City:

Trip Planner

Search our weather history database for the weather conditions in past years. The results will help you decide how hot, cold, wet, or windy it might be!

Date:

Astronomy

Jun. 01, 2013 Rise Set
Actual Time 5:47 AM PDT 8:25 PM PDT
Civil Twilight 5:16 AM PDT 8:56 PM PDT
Nautical Twilight 4:38 AM PDT 9:34 PM PDT
Astronomical Twilight 3:55 AM PDT 10:17 PM PDT
Moon 1:39 AM PDT (6/1) 2:05 PM PDT (6/1)
Length of Visible Light 15h 39m
Length of Day
14h 38m
Last Quarter, 40% of the Moon is Illuminated
Jun 1
Last Quarter
Jun 8
New
Jun 16
First Quarter
Jun 23
Full
Jun 29
Last Quarter

Hourly Weather History & Observations

Time (PDT) Temp. Dew Point Humidity Pressure Visibility Wind Dir Wind Speed Gust Speed Precip Events Conditions
12:53 AM 62.1 °F 51.1 °F 67% 29.88 in 10.0 mi NNW 3.5 mph - N/A   Clear
1:53 AM 59.0 °F 48.9 °F 69% 29.88 in 10.0 mi Calm Calm - N/A   Clear
2:53 AM 60.1 °F 48.0 °F 64% 29.87 in 10.0 mi Calm Calm - N/A   Clear
3:53 AM 61.0 °F 46.9 °F 60% 29.86 in 10.0 mi South 3.5 mph - N/A   Clear
4:53 AM 59.0 °F 46.9 °F 64% 29.85 in 10.0 mi Calm Calm - N/A   Clear
5:53 AM 57.9 °F 46.0 °F 65% 29.86 in 10.0 mi Calm Calm - N/A   Clear
6:53 AM 61.0 °F 46.9 °F 60% 29.86 in 10.0 mi South 5.8 mph - N/A   Clear
7:53 AM 64.9 °F 46.9 °F 52% 29.87 in 10.0 mi Calm Calm - N/A   Clear
8:53 AM 70.0 °F 48.0 °F 46% 29.88 in 10.0 mi Calm Calm - N/A   Clear
9:53 AM 75.9 °F 46.9 °F 36% 29.86 in 10.0 mi Calm Calm - N/A   Clear
10:53 AM 80.1 °F 45.0 °F 29% 29.85 in 10.0 mi Calm Calm - N/A   Clear
11:53 AM 84.0 °F 43.0 °F 24% 29.83 in 10.0 mi WNW 4.6 mph - N/A   Clear
12:53 PM 89.1 °F 43.0 °F 20% 29.82 in 10.0 mi WNW 8.1 mph - N/A   Clear
1:53 PM 91.9 °F 39.9 °F 16% 29.80 in 10.0 mi WNW 6.9 mph - N/A   Clear
2:53 PM 95.0 °F 42.1 °F 16% 29.77 in 10.0 mi NNW 10.4 mph - N/A   Clear
3:53 PM 95.0 °F 44.1 °F 17% 29.75 in 10.0 mi NNW 5.8 mph - N/A   Clear
4:53 PM 91.9 °F 44.1 °F 19% 29.73 in 10.0 mi WNW 11.5 mph - N/A   Mostly Cloudy
5:53 PM 91.0 °F 45.0 °F 20% 29.72 in 10.0 mi WNW 9.2 mph - N/A   Mostly Cloudy
6:53 PM 90.0 °F 43.0 °F 19% 29.71 in 10.0 mi West 6.9 mph - N/A   Clear
7:53 PM 86.0 °F 44.1 °F 23% 29.71 in 10.0 mi NW 8.1 mph - N/A   Clear
8:53 PM 80.1 °F 46.0 °F 30% 29.72 in 10.0 mi Variable 5.8 mph - N/A   Clear
9:53 PM 75.9 °F 46.0 °F 35% 29.73 in 10.0 mi Calm Calm - N/A   Scattered Clouds
10:53 PM 73.9 °F 44.1 °F 34% 29.73 in 10.0 mi Calm Calm - N/A   Clear
11:53 PM 72.0 °F 44.1 °F 37% 29.73 in 10.0 mi WSW 3.5 mph - N/A   Clear